Hamburg, Germany

5:04 AM CET on December 03, 2016 (GMT +0100)
Hamburg

Weather History for 10147 - September, 2013

Change the Weather History Date:

Wednesday, September 11, 2013

  Actual Average Record
Temperature  
Mean Temperature 52 °F -  
Max Temperature 59 °F - - ()
Min Temperature 44 °F - - ()
Degree Days  
Heating Degree Days 14    
Growing Degree Days 2 (Base 50)    
Moisture  
Dew Point 50 °F    
Average Humidity 89    
Maximum Humidity 100    
Minimum Humidity 66    
Precipitation  
Precipitation 0.04 in - - ()
Sea Level Pressure  
Sea Level Pressure 29.82 in    
Wind  
Wind Speed 3 mph ()    
Max Wind Speed 12 mph    
Max Gust Speed -    
Visibility 6.4 miles    
Events Fog , Rain    
T = Trace of Precipitation, MM = Missing Value Source: Averaged Metar Reports

Daily Weather History Graph

Daily Weather History Graph

Search for Another Location

Airport or City:

Trip Planner

Search our weather history database for the weather conditions in past years. The results will help you decide how hot, cold, wet, or windy it might be!

Date:

Astronomy

Sep. 11, 2013 Rise Set
Actual Time 6:46 AM CEST 7:45 PM CEST
Civil Twilight 6:10 AM CEST 8:21 PM CEST
Nautical Twilight 5:27 AM CEST 9:04 PM CEST
Astronomical Twilight 4:40 AM CEST 9:50 PM CEST
Moon 1:53 PM CEST (9/11) 10:29 PM CEST (9/11)
Length of Visible Light 14h 10m
Length of Day
12h 59m
Waxing Crescent, 36% of the Moon is Illuminated
Sep 11
Waxing Crescent
Sep 12
First Quarter
Sep 19
Full
Sep 27
Last Quarter
Oct 5
New

Hourly Weather History & Observations

Time (CEST) Temp. Windchill Dew Point Humidity Pressure Visibility Wind Dir Wind Speed Gust Speed Precip Events Conditions
12:20 AM 51.8 °F - 50.0 °F 94% 29.80 in 6.2 mi Variable 1.2 mph - N/A   Mostly Cloudy
12:50 AM 51.8 °F - 50.0 °F 94% 29.80 in 6.2 mi NNW 3.5 mph - N/A   Mostly Cloudy
1:00 AM 52 °F - 50 °F 90% 29.81 in 10 mi NNW 4.5 mph - -   Overcast
1:20 AM 51.8 °F - 50.0 °F 94% 29.80 in 6.2 mi Variable 2.3 mph - N/A   Mostly Cloudy
1:50 AM 48.2 °F - 46.4 °F 93% 29.77 in 6.2 mi Variable 1.2 mph - N/A   Mostly Cloudy
2:00 AM 48 °F - 47 °F 94% 29.80 in 7 mi NNW 2.2 mph - -   Partly Cloudy
2:20 AM 48.2 °F - 48.2 °F 100% 29.77 in 5.6 mi Calm Calm - N/A Fog Patches of Fog
2:50 AM 48.2 °F - 46.4 °F 93% 29.80 in 4.3 mi NNW 3.5 mph - N/A Fog Patches of Fog
3:00 AM 47 °F - 46 °F 96% 29.81 in 4 mi North 2.2 mph - - Fog Light Fog
3:20 AM 48.2 °F - 46.4 °F 93% 29.77 in 3.7 mi Variable 1.2 mph - N/A Fog Patches of Fog
3:50 AM 48.2 °F - 46.4 °F 93% 29.77 in 3.7 mi North 3.5 mph - N/A   Mostly Cloudy
4:00 AM 48 °F - 47 °F 94% 29.79 in 4 mi North 2.2 mph - -   Mostly Cloudy
4:20 AM 48.2 °F - 48.2 °F 100% 29.77 in 5.0 mi NNW 4.6 mph - N/A   Mostly Cloudy
4:50 AM 46.4 °F - 44.6 °F 93% 29.77 in 0.9 mi Variable 2.3 mph - N/A Fog Patches of Fog
5:20 AM 44.6 °F - 44.6 °F 100% 29.77 in 0.3 mi Variable 2.3 mph - N/A Fog Fog
5:50 AM 46.4 °F - 44.6 °F 93% 29.77 in 0.7 mi West 1.2 mph - N/A Fog Patches of Fog
6:20 AM 46.4 °F - 46.4 °F 100% 29.77 in 2.2 mi Variable 1.2 mph - N/A Fog Patches of Fog
6:50 AM 46.4 °F 45.2 °F 46.4 °F 100% 29.77 in 3.1 mi NW 3.5 mph - N/A   Scattered Clouds
7:20 AM 46.4 °F - 46.4 °F 100% 29.77 in 4.3 mi Variable 2.3 mph - N/A   Mostly Cloudy
7:50 AM 48.2 °F - 48.2 °F 100% 29.77 in 5.0 mi Variable 2.3 mph - N/A   Scattered Clouds
8:00 AM 48 °F - 47 °F 96% 29.80 in 5 mi WSW 2.2 mph - -   Partly Cloudy
8:20 AM 50.0 °F - 50.0 °F 100% 29.80 in 3.7 mi Variable 1.2 mph - N/A   Mostly Cloudy
8:50 AM 51.8 °F - 50.0 °F 94% 29.80 in 3.7 mi ESE 3.5 mph - N/A   Mostly Cloudy
9:20 AM 51.8 °F - 50.0 °F 94% 29.80 in 3.7 mi East 3.5 mph - N/A   Mostly Cloudy
9:50 AM 51.8 °F - 50.0 °F 94% 29.80 in 3.7 mi Variable 2.3 mph - N/A   Mostly Cloudy
10:00 AM 52 °F - 50 °F 91% 29.81 in 4 mi NW 2.2 mph - -   Mist
10:20 AM 53.6 °F - 51.8 °F 94% 29.80 in 3.7 mi NW 4.6 mph - N/A   Mostly Cloudy
10:50 AM 53.6 °F - 50.0 °F 88% 29.80 in 4.3 mi NNW 4.6 mph - N/A   Mostly Cloudy
11:20 AM 53.6 °F - 50.0 °F 88% 29.80 in 5.0 mi North 3.5 mph - N/A   Mostly Cloudy
11:50 AM 55.4 °F - 50.0 °F 82% 29.80 in 6.2 mi Variable 2.3 mph - N/A   Mostly Cloudy
12:00 PM 55 °F - 50 °F 79% 29.81 in 6 mi NNE 2.2 mph - -   Mostly Cloudy
12:20 PM 57.2 °F - 50.0 °F 77% 29.80 in 6.2 mi ENE 5.8 mph - N/A   Mostly Cloudy
12:50 PM 59.0 °F - 50.0 °F 72% 29.80 in 6.2 mi East 5.8 mph - N/A   Scattered Clouds
1:00 PM 58 °F - 50 °F 66% 29.82 in 12 mi East 4.5 mph - -   Mostly Cloudy
1:20 PM 55.4 °F - 50.0 °F 82% 29.80 in 6.2 mi East 11.5 mph - N/A Rain Light Rain Showers
1:50 PM 57.2 °F - 50.0 °F 77% 29.80 in 6.2 mi East 9.2 mph - N/A   Mostly Cloudy
2:00 PM 57 °F - 50 °F 69% 29.83 in 12 mi East 8.9 mph - - Rain Light Rain Showers
2:20 PM 57.2 °F - 50.0 °F 77% 29.80 in 6.2 mi East 8.1 mph - N/A   Mostly Cloudy
2:50 PM 57.2 °F - 51.8 °F 82% 29.83 in 6.2 mi East 5.8 mph - N/A   Mostly Cloudy
3:00 PM 56 °F - 51 °F 77% 29.83 in 16 mi East 4.5 mph - - Rain Light Rain Showers
3:20 PM 55.4 °F - 51.8 °F 88% 29.83 in 6.2 mi ENE 8.1 mph - N/A Rain Light Rain Showers
3:50 PM 55.4 °F - 51.8 °F 88% 29.83 in 6.2 mi NE 4.6 mph - N/A Rain Light Rain Showers
4:00 PM 54 °F - 51 °F 87% 29.85 in 6 mi NE 4.5 mph - - Rain Light Rain Showers
4:20 PM 55.4 °F - 51.8 °F 88% 29.83 in 6.2 mi NE 6.9 mph - N/A   Mostly Cloudy
4:50 PM 55.4 °F - 51.8 °F 88% 29.83 in 6.2 mi NNE 6.9 mph - N/A   Mostly Cloudy
5:20 PM 55.4 °F - 51.8 °F 88% 29.86 in 6.2 mi NE 8.1 mph - N/A Rain Light Rain Showers
5:50 PM 55.4 °F - 51.8 °F 88% 29.86 in 6.2 mi NNE 6.9 mph - N/A Rain Light Rain Showers
6:00 PM 55 °F - 52 °F 86% 29.86 in 16 mi NNE 6.7 mph - - Rain Light Rain Showers
6:20 PM 55.4 °F - 51.8 °F 88% 29.86 in 6.2 mi NNE 5.8 mph - N/A   Scattered Clouds
6:50 PM 55.4 °F - 51.8 °F 88% 29.86 in 6.2 mi NNE 5.8 mph - N/A   Mostly Cloudy
7:00 PM 56 °F - 52 °F 82% 29.87 in 16 mi NNE 4.5 mph - - Rain Light Rain Showers
7:20 PM 55.4 °F - 51.8 °F 88% 29.86 in 6.2 mi NNE 6.9 mph - N/A   Mostly Cloudy
7:50 PM 55.4 °F - 51.8 °F 88% 29.86 in 6.2 mi NNE 4.6 mph - N/A   Mostly Cloudy
8:00 PM 55 °F - 51 °F 81% 29.88 in 16 mi NNE 4.5 mph - -   Partly Cloudy
8:20 PM 55.4 °F - 51.8 °F 88% 29.86 in 6.2 mi NNE 3.5 mph - N/A   Mostly Cloudy
8:50 PM 53.6 °F - 51.8 °F 94% 29.86 in 6.2 mi North 5.8 mph - N/A   Mostly Cloudy
9:00 PM 54 °F - 51 °F 84% 29.88 in 16 mi North 4.5 mph - -   Mostly Cloudy
9:20 PM 53.6 °F - 50.0 °F 88% 29.86 in 6.2 mi North 3.5 mph - N/A   Scattered Clouds
9:50 PM 53.6 °F - 51.8 °F 94% 29.89 in 6.2 mi NNE 3.5 mph - N/A   Scattered Clouds
10:00 PM 53 °F - 51 °F 89% 29.89 in 14 mi NNE 2.2 mph - -   Partly Cloudy
10:20 PM 53.6 °F - 51.8 °F 94% 29.89 in 6.2 mi North 3.5 mph - N/A   Mostly Cloudy
10:50 PM 53.6 °F - 51.8 °F 94% 29.89 in 6.2 mi NNE 3.5 mph - N/A   Mostly Cloudy
11:20 PM 53.6 °F - 51.8 °F 94% 29.89 in 6.2 mi NNE 4.6 mph - N/A   Mostly Cloudy
11:50 PM 53.6 °F - 51.8 °F 94% 29.89 in 6.2 mi NNE 4.6 mph - N/A   Mostly Cloudy